SCP
0 0 0 0 0 0 0 0 0 0 0 0 0 0 0 0 0 0 0 0 0 0 0 0 0 0 0 0 0 0 0 0 0 0 0 0 0 0 0 0 0 0 0
0 0 0 0 0 0 0 0 0 0 0 0 0 0 0 0 0 0 0 0 0 0 0 0 0 0 0 0 0 0 0 0 0 0 0 0 0 0 0 0 0 0 0
0 0 0 0 0 0 0 0 0 0 0 0 0 0 0 0 0 0 0 0 0 0 0 0 0 0 0 0 0 0 0 0 0 0 0 0 0 0 0 0 0 0 0
0 0 0 0 0 0 0 0 0 0 0 0 0 0 0 0 0 0 0 0 0 0 0 0 0 0 0 0 0 0 0 0 0 0 0 0 0 0 0 0 0 0 0
0 0 0 0 0 0 0 0 0 0 0 0 0 0 0 0 0 0 0 0 0 0 0 0 0 0 0 0 0 0 0 0 0 0 0 0 0 0 0 0 0 0 0
0 0 0 0 0 0 0 0 0 0 0 0 0 0 0 0 0 0 0 0 0 0 0 0 0 0 0 0 0 0 0 0 0 0 0 0 0 0 0 0 0 0 0
0 0 0 0 0 0 0 0 0 0 0 0 0 0 0 0 0 0 0 0 0 0 0 0 0 0 0 0 0 0 0 0 0 0 0 0 0 0 0 0 0 0 0
0 0 0 0 0 0 0 0 0 0 0 0 0 0 0 0 0 0 0 0 0 0 0 0 0 0 0 0 0 0 0 0 0 0 0 0 0 0 0 0 0 0 0
0 0 0 0 0 0 0 0 0 0 0 0 0 0 0 0 0 0 0 0 0 0 0 0 0 0 0 0 0 0 0 0 0 0 0 0 0 0 0 0 0 0 0
0 0 0 0 0 0 0 0 0 0 0 0 0 0 0 0 0 0 0 0 0 0 0 0 0 0 0 0 0 0 0 0 0 0 0 0 0 0 0 0 0 0 0
0 0 0 0 0 0 0 0 0 0 0 0 0 0 0 0 0 0 0 0 0 0 0 0 0 0 0 0 0 0 0 0 0 0 0 0 0 0 0 0 0 0 0
0 0 0 0 0 0 0 0 0 0 0 0 0 0 0 0 0 0 0 0 0 0 0 0 0 0 0 0 0 0 0 0 0 0 0 0 0 0 0 0 0 0 0
0 0 0 0 0 0 0 0 0 0 0 0 0 0 0 0 0 0 0 0 0 0 0 0 0 0 0 0 0 0 0 0 0 0 0 0 0 0 0 0 0 0 0
0 0 0 0 0 0 0 0 0 0 0 0 0 0 0 0 0 0 0 0 0 0 0 0 0 0 0 0 0 0 0 0 0 0 0 0 0 0 0 0 0 0 0
0 0 0 0 0 0 0 0 0 0 0 0 0 0 0 0 0 0 0 0 0 0 0 0 0 0 0 0 0 0 0 0 0 0 0 0 0 0 0 0 0 0 0
0 0 0 0 0 0 0 0 0 0 0 0 0 0 0 -0 -0 0 0 0 0 0 0 0 0 0 0 0 0 0 0 0 0 0 0 0 0 0 0 0 0 0 0
0 0 0 0 0 0 0 0 0 0 0 0 0 0 0 0 0 0 0 0 0 0 0 0 0 0 0 0 0 0 0 0 0 0 0 0 0 0 0 0 0 0 0
0 0 0 0 0 0 0 0 0 0 0 0 0 0 0 0 0 0 0 0 0 0 0 0 0 0 0 0 0 0 0 0 0 0 0 0 0 0 0 0 0 0 0
0 0 0 0 0 0 0 0 0 0 0 0 0 0 0 0 0 0 0 0 0 0 0 0 0 0 0 0 0 0 0 0 0 0 0 0 0 0 0 0 0 0 0
0 0 0 0 0 0 0 0 0 0 0 0 0 0 0 0 0 0 0 0 0 0 0 0 0 0 0 0 0 0 0 0 0 0 0 0 0 0 0 0 0 0 0
0 0 0 0 0 0 0 0 0 0 0 0 0 0 0 0 0 0 0 0 0 0 0 0 0 0 0 0 0 0 0 0 0 0 0 0 0 0 0 0 0 0 0
0 0 0 0 0 0 0 0 0 0 0 0 0 0 0 0 0 0 0 0 0 0 0 0 0 0 0 0 0 0 0 0 0 0 0 0 0 0 0 0 0 0 0
0 0 0 0 0 0 0 0 0 0 0 0 0 0 0 0 0 0 0 0 0 0 0 0 0 0 0 0 0 0 0 0 0 0 0 0 0 0 0 0 0 0 0
0 0 0 0 0 0 0 0 0 0 0 0 0 0 0 0 0 0 0 0 0 0 0 0 0 0 0 0 0 0 0 0 0 0 0 0 0 0 0 0 0 0 0
0 0 0 0 0 0 0 0 0 0 0 0 0 0 0 0 0 0 0 0 0 0 0 0 0 0 0 0 0 0 0 0 0 0 0 0 0 0 0 0 0 0 0
0 0 0 0 0 0 0 0 0 0 0 0 0 0 0 0 0 0 0 0 0 0 0 0 0 0 0 0 0 0 0 0 0 0 0 0 0 0 0 0 0 0 0
Wind_Speed
9 8 7 6 6 5 5 6 5 5 6 7 7 7 7 7 6 6 5 5 5 5 4 4 5 4 3 2 1 2 2 3 3 4 3 2 2 3 3 4 5 6 6
9 7 7 6 6 6 6 6 5 6 6 7 7 7 8 8 7 7 7 7 6 6 6 5 6 4 5 4 3 3 3 3 4 5 3 3 4 4 5 5 5 6 6
8 8 7 6 6 6 6 6 6 6 6 6 7 7 8 8 8 8 8 7 7 7 7 7 7 6 6 4 5 4 4 4 4 4 5 3 4 4 4 5 5 5 6
8 7 7 7 6 6 6 5 6 6 6 6 7 7 7 7 8 8 8 8 7 7 7 7 7 8 8 7 6 6 5 5 4 4 5 4 4 4 3 4 5 4 5
7 7 6 6 5 5 4 4 4 4 5 5 5 5 6 6 7 7 8 8 8 7 7 7 8 10 11 9 7 7 7 6 5 5 6 5 5 4 5 4 6 5 5
6 5 4 4 3 2 2 2 2 2 2 2 4 4 4 5 7 9 8 6 6 7 7 7 7 9 11 13 14 12 10 9 8 7 7 7 9 7 5 5 5 4 6
6 5 4 4 4 3 2 2 1 0 0 1 1 2 2 2 3 4 7 4 4 4 5 5 5 5 6 5 8 11 11 14 14 10 10 11 10 8 6 7 7 7 9
8 6 5 5 4 3 4 2 1 1 1 1 1 0 0 1 0 2 2 2 1 2 2 3 3 3 3 3 4 5 6 7 9 9 9 11 10 8 8 10 10 9 7
9 7 5 5 5 5 4 3 2 2 2 2 2 2 2 3 4 2 2 1 1 2 2 2 2 2 5 5 3 4 6 7 8 9 10 12 14 14 11 6 6 6 9
7 6 6 6 6 5 4 4 3 3 3 4 4 4 4 4 6 6 4 2 2 2 3 3 4 4 6 6 3 4 7 8 7 9 9 9 9 11 13 10 9 9 9
6 6 6 6 5 5 4 4 4 4 5 5 5 4 5 6 7 7 6 3 1 1 2 2 3 6 8 9 7 5 9 9 7 7 8 8 7 7 8 8 9 9 11
6 7 6 5 5 5 5 5 4 5 5 4 4 4 3 4 5 6 6 4 2 1 2 3 4 9 11 12 9 10 13 11 6 5 6 7 7 8 8 8 9 10 12
7 6 5 5 4 4 4 4 3 3 3 2 2 2 1 2 2 4 5 5 4 1 2 6 9 11 11 8 10 13 11 6 5 5 6 7 7 8 7 7 8 9 10
6 5 4 4 4 4 3 3 2 2 2 2 1 1 1 2 2 3 3 3 5 4 4 7 9 10 8 8 9 7 5 5 5 6 7 7 6 6 7 6 7 7 7
6 5 4 4 4 3 3 2 2 1 2 2 1 1 1 1 3 3 2 3 3 3 4 3 3 4 5 5 5 6 5 5 5 5 5 6 6 6 7 6 6 6 7
5 4 3 3 3 3 3 4 6 5 6 6 4 3 1 1 4 6 7 7 8 6 3 3 4 4 5 5 6 6 6 5 5 6 6 6 7 7 8 7 6 7 8
4 3 3 3 3 3 3 3 3 4 7 7 6 5 3 5 6 7 8 8 7 5 2 3 4 5 5 5 6 6 7 7 6 6 7 7 7 8 8 8 7 7 8
4 4 3 2 3 3 3 3 2 2 3 3 4 6 6 6 7 8 7 5 4 4 3 4 5 5 5 6 6 6 7 7 7 7 7 7 7 8 9 9 8 9 9
4 3 3 3 3 3 3 3 2 3 2 2 3 4 6 6 6 7 6 3 4 5 5 5 5 5 6 6 6 6 7 8 8 8 7 8 8 8 9 9 9 11 10
3 5 5 3 3 3 3 3 3 3 3 3 3 3 4 4 4 5 5 4 4 5 5 6 6 6 6 6 6 7 7 8 8 8 8 8 8 8 10 11 10 10 9
3 4 6 4 3 3 3 3 3 3 3 3 3 4 6 3 4 5 5 5 4 5 6 6 7 7 7 6 7 8 10 9 8 8 8 8 9 9 10 10 10 10 10
2 3 3 3 2 2 3 3 3 3 3 3 3 4 7 4 3 4 4 5 5 5 6 6 6 6 7 7 8 8 9 9 9 9 9 10 10 10 11 10 10 10 10
3 3 3 3 2 3 3 3 2 3 3 3 3 3 4 4 4 4 5 5 6 6 6 6 7 7 7 7 7 8 9 9 9 11 11 11 10 10 10 11 13 12 10
4 4 3 3 3 3 3 3 3 3 3 3 4 4 4 4 5 5 6 6 6 6 6 7 7 10 13 10 8 7 8 10 11 10 13 12 12 11 11 11 11 12 11
4 4 3 3 3 3 3 3 3 3 3 3 4 4 4 5 5 6 6 6 7 8 9 9 7 9 12 14 13 11 12 14 13 12 11 10 12 13 12 13 11 11 11
4 4 3 3 3 3 3 3 3 3 3 3 4 4 4 5 5 6 6 7 8 8 9 8 10 13 14 12 14 16 14 14 14 14 11 9 11 11 11 10 12 11 11
Wind_Direction
183 187 187 185 187 187 190 200 198 195 190 188 189 189 192 194 190 188 198 197 203 214 215 209 223 219 219 220 199 185 181 167 211 264 262 267 254 254 254 239 240 237 242
184 183 187 188 189 196 206 208 201 198 196 194 191 192 199 200 197 198 208 207 206 215 220 217 226 224 224 224 217 221 216 200 202 249 268 264 254 248 247 248 246 240 236
179 181 186 189 192 202 210 211 205 200 200 197 194 199 205 203 203 207 210 213 213 216 217 218 225 220 228 226 223 226 229 228 210 230 259 254 259 257 262 265 258 255 252
174 177 186 196 200 205 205 207 208 202 201 202 202 205 206 204 206 209 211 217 220 222 221 220 222 218 223 223 226 226 226 231 229 237 256 259 257 254 242 257 273 260 257
164 174 192 200 204 208 208 213 214 212 213 208 207 214 211 210 216 213 214 217 221 229 231 229 229 226 224 222 225 222 220 228 231 238 252 261 259 254 246 240 256 266 264
153 167 174 172 175 175 177 176 174 204 220 210 213 214 213 225 232 220 214 221 220 225 235 241 245 242 241 237 237 232 221 225 233 236 243 245 254 245 245 242 247 257 270
108 107 115 124 119 119 111 92 99 203 173 201 219 202 210 235 236 225 219 219 225 232 238 246 258 262 253 252 253 252 246 242 237 237 245 248 252 244 236 244 241 238 248
92 90 94 105 109 95 82 73 40 36 83 96 63 86 110 17 153 196 190 180 216 260 264 264 264 288 317 305 286 280 272 265 257 250 249 255 255 251 238 244 250 253 253
81 78 76 86 88 79 74 60 43 45 34 35 39 54 62 27 35 59 119 88 39 353 359 12 16 7 358 2 341 311 301 294 288 281 271 267 266 263 257 258 255 253 260
77 73 69 70 77 76 73 67 48 52 43 46 50 52 63 54 48 59 78 70 48 18 5 5 25 19 0 357 336 306 295 293 300 303 295 286 275 268 259 245 245 252 259
84 78 69 69 75 76 65 60 61 61 57 57 62 53 53 54 53 61 68 69 60 19 347 327 318 331 328 321 309 273 269 280 285 281 282 281 276 268 261 251 240 240 249
76 70 63 58 63 71 68 59 54 58 60 58 63 54 45 44 52 55 57 56 47 36 313 303 304 317 317 312 303 288 287 288 276 273 274 274 274 272 268 261 254 250 248
70 65 57 51 51 58 68 65 55 55 65 59 72 74 47 18 19 32 32 24 15 358 296 304 309 311 312 306 299 300 302 292 281 276 275 273 269 270 274 274 271 265 262
67 57 50 49 44 44 53 67 75 70 73 66 67 74 52 1 350 350 351 348 347 339 326 315 315 313 309 300 302 305 298 286 283 279 280 279 279 278 276 273 275 275 275
62 53 47 48 50 46 42 51 76 85 132 127 126 127 98 359 310 323 343 337 329 319 323 325 327 327 325 320 315 308 305 307 302 294 294 298 295 290 286 280 272 274 271
60 45 41 39 39 42 46 39 42 61 65 81 99 104 78 328 335 349 348 344 339 338 350 325 315 312 310 311 312 311 307 305 302 303 300 296 295 294 292 288 279 274 273
66 52 41 39 40 38 44 61 41 25 42 54 56 51 28 356 356 348 342 338 336 344 346 307 303 303 302 302 303 304 304 301 297 295 295 295 295 294 290 288 284 279 276
55 45 46 44 45 49 53 57 65 58 24 7 14 17 10 2 356 350 347 356 346 346 321 308 307 305 303 303 304 303 302 303 300 295 294 294 293 291 290 287 284 280 280
48 38 43 47 51 58 58 52 46 44 39 11 356 355 356 354 354 354 359 6 332 325 321 315 309 308 307 305 305 304 303 302 300 298 294 293 294 291 287 285 284 283 280
33 40 56 58 53 49 43 41 34 31 26 17 6 346 342 360 356 347 351 345 336 328 326 321 317 313 311 310 310 308 306 305 306 304 301 298 296 294 290 288 284 282 280
35 38 52 60 59 53 48 44 41 39 26 7 349 348 4 358 344 340 339 337 333 327 323 320 317 315 314 313 312 310 308 305 304 302 300 299 298 295 293 290 286 281 280
56 59 58 69 69 58 48 43 41 28 9 358 340 344 358 1 344 336 332 330 326 320 317 317 315 312 311 311 310 309 307 306 307 307 304 300 298 296 295 294 292 287 282
68 69 65 61 61 55 51 37 25 11 357 350 347 349 352 347 338 334 331 328 325 322 320 317 315 315 315 312 309 306 305 307 308 305 302 298 295 293 292 293 292 293 288
68 72 70 58 47 44 38 23 13 7 1 355 352 349 343 340 336 334 331 326 324 322 320 318 316 316 319 319 314 311 311 312 311 303 298 292 291 289 289 290 291 291 290
71 68 61 53 45 37 28 18 9 2 359 356 352 345 342 341 337 333 329 327 327 326 326 326 322 323 323 322 320 320 317 313 306 304 298 290 286 285 286 288 290 292 291
74 68 58 49 42 30 24 13 4 360 356 353 352 349 348 345 340 336 333 334 333 330 329 328 326 326 324 324 324 324 318 314 311 307 300 292 288 287 291 290 291 292 292